Location: Whitehorse
(60.7170°N, 135.0500°W)
Time: 02:06:53
(UTC-08:00)

SL-16 R/B - Visible Passes

Search period start: 23 January 2018 00:00
Search period end: 02 February 2018 00:00
Orbit: 840 x 850 km, 71.0° (Epoch: 22 January)

Date Brightness Start Highest point End Pass type
(mag) Time Alt. Az. Time Alt. Az. Time Alt. Az.
23 Jan 3.1 19:03:45 10° W 19:09:11 43° NNW 19:13:23 16° NE visible
23 Jan 3.5 20:49:39 10° WNW 20:54:39 30° N 20:55:16 29° N visible
23 Jan 4.3 22:34:53 10° NW 22:37:09 22° NNW 22:37:09 22° NNW visible
24 Jan 3.1 18:49:39 10° W 18:55:06 43° NNW 18:59:42 14° NE visible
24 Jan 3.5 20:35:33 10° WNW 20:40:32 30° N 20:41:35 28° NNE visible
24 Jan 4.1 22:20:48 10° NW 22:23:28 25° NNW 22:23:28 25° NNW visible
25 Jan 5.1 00:05:13 10° NW 00:05:20 11° NW 00:05:20 11° NW visible
25 Jan 3.1 18:35:33 10° WSW 18:41:00 44° NNW 18:46:01 12° NE visible
25 Jan 3.5 20:21:27 10° WNW 20:26:26 30° N 20:27:53 27° NNE visible
25 Jan 3.9 22:06:42 10° NW 22:09:46 27° NNW 22:09:46 27° NNW visible
25 Jan 5.0 23:51:08 10° NW 23:51:39 13° NW 23:51:39 13° NW visible
26 Jan 3.0 18:21:26 10° WSW 18:26:55 44° NNW 18:32:19 10° NE visible
26 Jan 3.5 20:07:20 10° WNW 20:12:20 30° N 20:14:12 25° NNE visible
26 Jan 3.7 21:52:38 10° NW 21:56:05 29° NNW 21:56:05 29° NNW visible
26 Jan 4.8 23:37:04 10° NW 23:37:57 15° NW 23:37:57 15° NW visible
27 Jan 3.0 18:07:21 10° WSW 18:12:48 45° NNW 18:18:18 10° NE visible
27 Jan 3.5 19:53:14 10° WNW 19:58:14 30° N 20:00:30 23° NNE visible
27 Jan 3.6 21:38:32 10° NW 21:42:23 32° N 21:42:23 32° N visible
27 Jan 4.7 23:22:58 10° NW 23:24:15 17° NW 23:24:15 17° NW visible
28 Jan 3.0 17:53:14 10° WSW 17:58:43 45° NNW 18:04:13 10° NE visible
28 Jan 3.5 19:39:07 10° WNW 19:44:08 30° N 19:46:48 21° NE visible
28 Jan 3.4 21:24:27 10° NW 21:28:41 33° N 21:28:41 33° N visible
28 Jan 4.5 23:08:54 10° NW 23:10:34 20° NW 23:10:34 20° NW visible
29 Jan 3.5 19:25:01 10° WNW 19:30:02 30° N 19:33:07 19° NE visible
29 Jan 3.3 21:10:22 10° NW 21:15:00 35° N 21:15:00 35° N visible
29 Jan 4.3 22:54:49 10° NW 22:56:52 23° NW 22:56:52 23° NW visible
30 Jan 3.5 19:10:55 10° WNW 19:15:55 30° N 19:19:26 17° NE visible
30 Jan 3.2 20:56:17 10° NW 21:01:19 35° NNE 21:01:19 35° NNE visible
30 Jan 4.1 22:40:44 10° NW 22:43:11 26° NW 22:43:11 26° NW visible
31 Jan 3.4 18:56:48 10° WNW 19:01:49 30° N 19:05:45 15° NE visible
31 Jan 3.1 20:42:10 10° NW 20:47:24 35° NNE 20:47:38 35° NNE visible
31 Jan 3.8 22:26:39 10° NW 22:29:31 30° NW 22:29:31 30° NW visible
01 Feb 5.0 00:11:04 10° NW 00:11:24 12° NW 00:11:24 12° NW visible
01 Feb 3.4 18:42:42 10° WNW 18:47:42 30° N 18:52:05 13° NE visible
01 Feb 3.1 20:28:05 10° NW 20:33:19 35° NNE 20:33:58 34° NNE visible
01 Feb 3.5 22:12:34 10° NW 22:15:51 35° NNW 22:15:51 35° NNW visible
